[[{"header":{"parameterUnit":"m.s-1","parameterCategory":1,"la1":30.2991,"la2":30.254,"lo1":-89.0895,"lo2":-89.0444,"dy":0.0017,"dx":0.0017,"nx":28,"ny":28,"refTime":"2023-07-28T21:00:00:Z","depth":0,"parameterNumber":2,"parameterNumberName":"U-component_of_WINDS"},"data":[0,0,0,0,0,0,0,0,0,0,0,0,0,0,0,0,0,0,0,0,0,0,0,0,0,0,0,0,0,0,0,0,0,0,0,0,0,0,0,0,0,0,0,0,0,0,0,0,0,0,0,0,0,0,0,0,0,0,2.4595,2.4596,0,2.4703,2.4705,2.4706,2.4699,2.4698,2.4696,2.4694,2.4805,2.4809,2.4814,0,0,0,0,0,0,0,0,0,0,0,0,0,2.4379,2.4383,2.4595,2.4596,2.4597,2.4703,2.4705,2.4706,2.4699,2.4697,2.4696,2.4694,2.4804,2.4809,2.4814,0,0,0,0,0,0,0,0,0,0,0,0,0,2.4479,2.4385,2.4594,2.4607,2.4609,2.4703,2.4705,2.4707,2.47,2.4697,2.4695,2.4693,2.4802,2.4808,2.4815,2.4903,0,0,2.4835,2.4838,0,0,0,0,0,0,0,0,2.4473,2.4487,2.4604,2.4606,2.4609,2.4685,2.4669,2.4772,2.47,2.4665,2.4694,2.4692,2.4767,2.4776,2.4802,2.4908,2.4913,2.4836,2.484,2.4843,2.4844,0,0,0,0,0,0,0,2.4466,2.4482,2.4638,2.4605,2.4608,2.4606,2.4618,2.4689,2.4728,2.4668,2.4668,2.4681,2.4768,2.4796,2.4805,2.4915,2.4835,2.4841,2.4845,2.4848,2.5097,2.5099,0,0,0,0,0,0,2.4457,2.4476,2.4634,2.4641,2.4534,2.4612,2.4625,2.4663,2.4727,2.4735,2.4683,2.468,2.4785,2.4797,2.4808,2.4914,2.4842,2.4849,2.4853,2.5094,2.5097,2.51,0,0,0,0,0,0,2.4452,2.4471,2.463,2.4559,2.4579,2.4618,2.4661,2.4666,2.4694,2.4738,2.4745,2.4704,2.4784,2.4799,2.4879,2.4918,2.4852,2.4858,2.5091,2.5095,2.5099,2.5127,0,0,0,0,0,0,2.4446,2.4469,2.4504,2.4559,2.4582,2.4699,2.4664,2.467,2.4706,2.4703,2.476,2.4767,2.4783,2.4869,2.4886,2.4926,2.4863,2.5088,2.5093,2.5098,2.5123,2.5132,2.5139,0,0,0,0,0,2.4438,2.4508,2.4506,2.4525,2.4626,2.4702,2.4715,2.4732,2.4709,2.4743,2.4771,2.4765,2.4911,2.4878,2.4896,2.4939,2.5085,2.5091,2.5097,2.5119,2.513,2.5139,0,0,0,0,0,0,2.4456,2.4515,2.4514,2.4603,2.4647,2.47,2.4744,2.4743,2.4795,2.479,2.4809,2.4822,2.4902,2.4929,2.489,2.5026,2.4995,2.5005,2.5006,2.5016,2.5024,2.5015,2.4868,0,0,0,0,0,2.447,2.4527,2.4576,2.465,2.4672,2.4704,2.4738,2.4747,2.4794,2.4812,2.4847,2.4891,2.4947,2.4984,2.5038,2.5127,2.5138,2.5166,2.5174,2.518,2.5188,2.5235,2.5247,2.512,2.512,2.512,0,0,2.45,2.4539,2.4574,2.4654,2.469,2.4746,2.472,2.4782,2.4824,2.4822,2.4899,2.4926,2.4977,2.5062,2.5101,2.5086,2.5226,2.5188,2.5192,2.5197,2.5242,2.5254,2.5265,2.5124,2.5123,2.5122,0,0,2.4583,2.462,2.4684,2.472,2.4774,2.4795,2.481,2.4864,2.4881,2.4959,2.4958,2.5008,2.5105,2.514,2.5171,2.5267,2.5262,2.5284,2.5325,2.5371,2.5381,2.539,2.5422,2.5433,2.5292,2.5292,2.5292,0,2.4613,2.4699,2.4718,2.478,2.4814,2.4815,2.4879,2.4913,2.4982,2.5005,2.4988,2.5108,2.5143,2.5235,2.5258,2.5284,2.5301,2.5277,2.5378,2.5388,2.5396,2.5427,2.5439,2.5294,2.5294,2.5294,2.5294,0,2.4732,2.4792,2.4838,2.4904,2.4944,2.5007,2.5034,2.5072,2.5078,2.51,2.5179,2.5221,2.5282,2.5305,2.5312,2.5398,2.5387,2.5374,2.5343,2.541,2.5439,2.5451,2.5297,2.5297,2.5296,2.5296,0,0,2.4828,2.4903,2.4919,2.4948,2.5007,2.5054,2.5116,2.5176,2.5208,2.5255,2.5307,2.5388,2.5376,2.5411,2.5422,2.5463,2.5533,2.5445,2.5446,2.5458,2.5627,2.5634,2.5648,2.5531,2.5534,2.5536,2.5622,0,2.4915,2.5026,2.5044,2.5141,2.5196,2.5197,2.5251,2.5293,2.5316,2.5364,2.539,2.5446,2.5427,2.5448,2.5488,2.5516,2.5567,2.551,2.5578,2.558,2.5562,2.5663,2.5672,2.5751,2.5634,2.5636,2.5637,0,2.5031,2.5081,2.5183,2.5234,2.5257,2.5306,2.5361,2.5409,2.5455,2.5469,2.5508,2.5514,2.5578,2.5545,2.5632,2.5593,2.5622,2.564,2.5644,2.5649,2.5611,2.5669,2.5777,2.5788,2.5656,2.5654,2.5653,0,2.5088,2.5181,2.5253,2.5278,2.534,2.5373,2.54,2.5445,2.5479,2.5528,2.555,2.5606,2.5636,2.5679,2.5699,2.5674,2.5784,2.5754,2.5795,2.5795,2.5817,2.5815,2.5929,2.584,2.584,2.5839,2.5839,0,2.5181,2.5243,2.5279,2.5323,2.5392,2.5413,2.548,2.5506,2.5546,2.5594,2.56,2.5645,2.5671,2.572,2.5736,2.5804,2.5819,2.583,2.5833,2.5829,2.5827,2.5846,2.584,2.5843,2.5842,2.5841,2.5841,0,2.5255,2.5282,2.5361,2.5412,2.5426,2.5475,2.5518,2.5561,2.5583,2.5645,2.566,2.5695,2.5753,2.5778,2.585,2.5861,2.5938,2.5939,2.5922,2.5923,2.5962,2.5957,2.6091,2.6108,2.601,2.6011,2.6011,0,2.5312,2.5359,2.5416,2.5449,2.5476,2.553,2.5565,2.5586,2.5622,2.5679,2.5714,2.5772,2.5819,2.5912,2.5943,2.5997,2.5998,2.6041,2.6006,2.5998,2.5995,2.5991,2.5995,2.6046,2.6047,2.6048,2.6049,0,2.5409,2.542,2.547,2.5525,2.5566,2.561,2.5654,2.568,2.5708,2.5748,2.5807,2.5844,2.5917,2.5973,2.603,2.6057,2.6057,2.606,2.6072,2.6066,2.6053,2.6058,2.5937,2.6056,2.6055,2.6055,2.6054,2.6054,2.5474,2.5516,2.5561,2.5617,2.5651,2.5691,2.5733,2.5761,2.5811,2.5871,2.5881,2.5943,2.5988,2.6063,2.6092,2.6141,2.613,2.6148,2.6152,2.6156,2.6157,2.6048,2.6152,2.6151,2.6151,2.6151,2.6151,0,2.5569,2.5599,2.565,2.5709,2.5753,2.575,2.5798,2.5833,2.5888,2.593,2.5976,2.6043,2.6098,2.6134,2.6189,2.6221,2.6222,2.6235,2.6231,2.6237,2.6165,2.6147,2.6232,2.6232,2.6232,2.6232,2.6232,2.6232,2.5624,2.5693,2.5709,2.5795,2.5824,2.5885,2.5912,2.5948,2.5981,2.6056,2.6101,2.6124,2.6163,2.6221,2.6271,2.628,2.6299,2.6311,2.6319,2.6251,2.6242,2.6234,2.6218,2.6316,2.6316,2.6387,2.6388,2.6388]},{"header":{"parameterUnit":"m.s-1","parameterCategory":1,"la1":30.2991,"la2":30.254,"lo1":-89.0895,"lo2":-89.0444,"dy":0.0017,"dx":0.0017,"nx":28,"ny":28,"refTime":"2023-07-28T21:00:00:Z","depth":0,"parameterNumber":3,"parameterNumberName":"V-component_of_WINDS"},"data":[0,0,0,0,0,0,0,0,0,0,0,0,0,0,0,0,0,0,0,0,0,0,0,0,0,0,0,0,0,0,0,0,0,0,0,0,0,0,0,0,0,0,0,0,0,0,0,0,0,0,0,0,0,0,0,0,0,0,3.4818,3.4818,0,3.4776,3.4775,3.4775,3.4684,3.4683,3.4681,3.4679,3.4636,3.4637,3.4637,0,0,0,0,0,0,0,0,0,0,0,0,0,3.4822,3.4823,3.4818,3.4818,3.4817,3.4776,3.4775,3.4775,3.4685,3.4683,3.468,3.4678,3.4636,3.4637,3.4637,0,0,0,0,0,0,0,0,0,0,0,0,0,3.4804,3.4823,3.4819,3.4768,3.4763,3.4776,3.4775,3.4774,3.4685,3.4682,3.468,3.4677,3.4636,3.4637,3.4637,3.4697,0,0,3.464,3.464,0,0,0,0,0,0,0,0,3.4806,3.4804,3.4776,3.4771,3.4765,3.4733,3.4761,3.4749,3.4686,3.4715,3.4679,3.4676,3.4671,3.4668,3.4666,3.4695,3.4693,3.464,3.4641,3.4641,3.4641,0,0,0,0,0,0,0,3.4807,3.4806,3.4801,3.4775,3.4769,3.4747,3.4741,3.4758,3.4708,3.4712,3.4705,3.4701,3.4667,3.4666,3.4665,3.4693,3.464,3.4641,3.4641,3.4642,3.4767,3.4769,0,0,0,0,0,0,3.4816,3.4807,3.4803,3.48,3.4779,3.4749,3.4743,3.4746,3.4708,3.47,3.4704,3.4697,3.4666,3.4664,3.4663,3.4729,3.4641,3.4642,3.4642,3.4764,3.4767,3.477,0,0,0,0,0,0,3.4816,3.4816,3.4805,3.4802,3.4799,3.4752,3.4756,3.4747,3.4745,3.4702,3.4693,3.4711,3.4663,3.4662,3.4689,3.4726,3.4642,3.4643,3.476,3.4765,3.4769,3.4862,0,0,0,0,0,0,3.4816,3.4817,3.4839,3.4803,3.4799,3.4832,3.4758,3.4748,3.4746,3.4738,3.4706,3.4699,3.4661,3.4688,3.469,3.4726,3.4644,3.4757,3.4762,3.4767,3.4855,3.4869,3.4881,0,0,0,0,0,3.4817,3.4868,3.4841,3.4841,3.4826,3.4834,3.4832,3.4787,3.475,3.4772,3.4744,3.47,3.4722,3.4692,3.4693,3.4729,3.4754,3.4761,3.4767,3.485,3.4866,3.488,0,0,0,0,0,0,3.491,3.4862,3.4831,3.4872,3.4858,3.4819,3.4845,3.4807,3.4803,3.4795,3.474,3.4734,3.4768,3.4751,3.4719,3.4784,3.4731,3.4738,3.4794,3.4809,3.4821,3.4824,3.4644,0,0,0,0,0,3.4935,3.4945,3.4903,3.4943,3.4937,3.4893,3.4894,3.4861,3.4844,3.4838,3.4812,3.4797,3.48,3.4804,3.4805,3.4853,3.4844,3.4879,3.4891,3.4902,3.4908,3.493,3.4945,3.4791,3.4791,3.4791,0,0,3.4987,3.4962,3.4972,3.4961,3.4946,3.4957,3.4888,3.4903,3.4911,3.484,3.4863,3.4844,3.4824,3.4862,3.4877,3.4849,3.4949,3.491,3.4919,3.4919,3.4938,3.4953,3.4966,3.4795,3.4795,3.4794,0,0,3.5087,3.507,3.51,3.5086,3.5064,3.5034,3.5042,3.5008,3.4992,3.5015,3.4962,3.497,3.4978,3.4965,3.496,3.5055,3.5013,3.5057,3.5122,3.5144,3.5156,3.5167,3.5199,3.5211,3.5063,3.5064,3.5064,0,3.5154,3.5169,3.5121,3.5139,3.5135,3.5071,3.5101,3.509,3.507,3.5069,3.5038,3.5045,3.5027,3.506,3.5083,3.5081,3.5087,3.5059,3.5159,3.5169,3.5178,3.5208,3.522,3.5069,3.5068,3.5068,3.5067,0,3.5252,3.5264,3.5291,3.5272,3.5271,3.5296,3.5251,3.5256,3.5223,3.5196,3.522,3.5196,3.519,3.5196,3.5164,3.5224,3.5207,3.5169,3.5113,3.5198,3.5225,3.5237,3.5076,3.5074,3.5073,3.5072,0,0,3.5409,3.5363,3.5374,3.5363,3.5334,3.5342,3.5363,3.5357,3.5362,3.535,3.5366,3.5373,3.5337,3.5331,3.5297,3.5317,3.5392,3.5275,3.5274,3.5296,3.5454,3.5482,3.5496,3.5365,3.5367,3.5368,3.5455,0,3.5502,3.5535,3.5491,3.5534,3.5543,3.5482,3.55,3.5484,3.5459,3.5463,3.5436,3.5442,3.5394,3.539,3.5407,3.5379,3.5422,3.5372,3.5378,3.5378,3.5383,3.5511,3.5541,3.5624,3.5465,3.5467,3.5469,0,3.5614,3.5606,3.5649,3.5616,3.5618,3.5635,3.5625,3.563,3.5611,3.5591,3.5584,3.5544,3.5562,3.5509,3.5532,3.5499,3.5499,3.5486,3.5488,3.5485,3.5428,3.551,3.5649,3.5661,3.5485,3.5484,3.5483,0,3.5722,3.5723,3.5748,3.5742,3.5704,3.5717,3.5702,3.5679,3.5678,3.567,3.5668,3.5663,3.5659,3.5655,3.5614,3.558,3.5642,3.5586,3.5625,3.5626,3.564,3.564,3.578,3.5643,3.5643,3.5642,3.5642,0,3.5828,3.5857,3.5796,3.5811,3.5841,3.5791,3.5822,3.5801,3.5781,3.5791,3.5739,3.5749,3.5695,3.5699,3.5668,3.5691,3.569,3.5674,3.5665,3.5678,3.568,3.5676,3.5669,3.5646,3.5645,3.5644,3.5644,0,3.5954,3.5914,3.5937,3.59,3.5891,3.5914,3.5881,3.5894,3.5866,3.5879,3.588,3.5836,3.5838,3.5797,3.5792,3.577,3.5807,3.5788,3.5814,3.5807,3.5848,3.5844,3.5989,3.6005,3.586,3.5861,3.5862,0,3.6023,3.6044,3.6008,3.601,3.5998,3.6003,3.6001,3.5953,3.5953,3.5931,3.5946,3.5945,3.594,3.5947,3.5914,3.591,3.589,3.5941,3.5889,3.59,3.5888,3.5887,3.5888,3.5951,3.5953,3.5955,3.5956,0,3.6151,3.613,3.6129,3.6122,3.6121,3.6113,3.6101,3.6106,3.6053,3.6056,3.6058,3.6054,3.6048,3.6047,3.6036,3.6019,3.5979,3.5973,3.5981,3.5994,3.6007,3.5999,3.5842,3.5969,3.5968,3.5967,3.5966,3.5966,3.625,3.6264,3.6241,3.6241,3.6227,3.6217,3.6227,3.62,3.62,3.6191,3.6163,3.6169,3.6147,3.6128,3.6116,3.6119,3.6094,3.6107,3.611,3.6113,3.612,3.6008,3.6117,3.6117,3.6117,3.6116,3.6116,0,3.6373,3.6355,3.6356,3.6341,3.6341,3.6303,3.6287,3.629,3.6296,3.6279,3.6276,3.6277,3.6275,3.6243,3.6236,3.6246,3.6227,3.6245,3.6243,3.624,3.6144,3.6136,3.6261,3.6261,3.6261,3.6261,3.6261,3.6261,3.6437,3.6459,3.6436,3.645,3.6431,3.6437,3.6431,3.6421,3.6408,3.6411,3.6409,3.6388,3.6364,3.6356,3.6352,3.6342,3.6342,3.6367,3.6351,3.6261,3.6247,3.6234,3.6226,3.6367,3.6367,3.6446,3.6447,3.6447]}]]